TimeEDT,TemperatureF,Dew PointF,Humidity,Sea Level PressureIn,VisibilityMPH,Wind Direction,Wind SpeedMPH,Gust SpeedMPH,PrecipitationIn,Events,Conditions,WindDirDegrees,DateUTC
12:15 AM,57.2,44.6,63,30.27,5.0,West,4.6,-,N/A,,Haze,270,2012-10-23 04:15:00
12:35 AM,57.2,46.4,67,30.27,5.0,Calm,Calm,-,N/A,,Haze,0,2012-10-23 04:35:00
12:55 AM,57.2,46.4,67,30.26,4.0,West,3.5,-,N/A,,Haze,260,2012-10-23 04:55:00
1:35 AM,55.4,46.4,72,30.26,3.0,West,5.8,-,N/A,,Haze,270,2012-10-23 05:35:00
2:15 AM,57.2,46.4,67,30.26,7.0,West,4.6,-,N/A,,Clear,270,2012-10-23 06:15:00
2:55 AM,57.2,46.4,67,30.26,5.0,West,3.5,-,N/A,,Haze,260,2012-10-23 06:55:00
3:35 AM,57.2,46.4,67,30.26,4.0,WSW,4.6,-,N/A,,Haze,240,2012-10-23 07:35:00
3:55 AM,51.8,44.6,76,30.25,4.0,WSW,6.9,-,N/A,,Haze,250,2012-10-23 07:55:00
4:15 AM,53.6,44.6,72,30.25,5.0,WSW,8.1,-,N/A,,Haze,250,2012-10-23 08:15:00
4:35 AM,53.6,46.4,77,30.25,5.0,WSW,5.8,-,N/A,,Haze,250,2012-10-23 08:35:00
4:55 AM,53.6,44.6,72,30.25,5.0,West,6.9,-,N/A,,Haze,270,2012-10-23 08:55:00
5:15 AM,51.8,44.6,76,30.25,5.0,West,6.9,-,N/A,,Haze,270,2012-10-23 09:15:00
5:35 AM,55.4,46.4,72,30.26,5.0,West,6.9,-,N/A,,Haze,280,2012-10-23 09:35:00
5:55 AM,53.6,46.4,77,30.26,7.0,West,8.1,-,N/A,,Clear,260,2012-10-23 09:55:00
6:15 AM,55.4,46.4,72,30.26,5.0,West,9.2,-,N/A,,Haze,260,2012-10-23 10:15:00
6:55 AM,55.4,46.4,72,30.27,4.0,West,9.2,-,N/A,,Haze,260,2012-10-23 10:55:00
7:15 AM,55.4,46.4,72,30.27,5.0,West,9.2,-,N/A,,Haze,260,2012-10-23 11:15:00
7:35 AM,55.4,46.4,72,30.27,7.0,West,9.2,-,N/A,,Clear,260,2012-10-23 11:35:00
8:15 AM,57.2,46.4,67,30.27,4.0,West,9.2,-,N/A,,Haze,260,2012-10-23 12:15:00
9:55 AM,60.8,46.4,59,30.28,4.0,West,8.1,-,N/A,,Haze,260,2012-10-23 13:55:00
10:35 AM,62.6,48.2,59,30.28,3.0,West,8.1,-,N/A,,Haze,260,2012-10-23 14:35:00
11:15 AM,64.4,48.2,56,30.27,4.0,WSW,9.2,-,N/A,,Haze,250,2012-10-23 15:15:00
11:35 AM,64.4,48.2,56,30.27,5.0,WSW,11.5,-,N/A,,Haze,240,2012-10-23 15:35:00
11:55 AM,66.2,48.2,52,30.27,5.0,WSW,8.1,-,N/A,,Haze,240,2012-10-23 15:55:00
12:15 PM,66.2,48.2,52,30.27,4.0,WSW,11.5,-,N/A,,Haze,250,2012-10-23 16:15:00
12:35 PM,66.2,50.0,56,30.27,4.0,West,9.2,-,N/A,,Haze,280,2012-10-23 16:35:00
12:55 PM,66.2,50.0,56,30.26,5.0,WSW,6.9,-,N/A,,Haze,250,2012-10-23 16:55:00
1:15 PM,66.2,51.8,60,30.26,10.0,West,8.1,-,N/A,,Clear,260,2012-10-23 17:15:00
1:35 PM,68.0,50.0,52,30.25,10.0,WSW,8.1,-,N/A,,Clear,250,2012-10-23 17:35:00
1:55 PM,68.0,50.0,52,30.24,10.0,WNW,5.8,-,N/A,,Clear,290,2012-10-23 17:55:00
2:15 PM,68.0,50.0,52,30.24,4.0,WSW,6.9,-,N/A,,Haze,250,2012-10-23 18:15:00
2:35 PM,69.8,50.0,49,30.23,7.0,NW,6.9,-,N/A,,Clear,310,2012-10-23 18:35:00
2:55 PM,69.8,50.0,49,30.23,3.0,WSW,8.1,-,N/A,,Haze,250,2012-10-23 18:55:00
3:15 PM,69.8,48.2,46,30.22,7.0,WSW,8.1,-,N/A,,Clear,250,2012-10-23 19:15:00
3:35 PM,69.8,48.2,46,30.22,4.0,SW,10.4,-,N/A,,Haze,230,2012-10-23 19:35:00
4:15 PM,68.0,48.2,49,30.22,5.0,WSW,8.1,-,N/A,,Haze,240,2012-10-23 20:15:00
4:35 PM,69.8,48.2,46,30.22,5.0,West,9.2,17.3,N/A,,Haze,260,2012-10-23 20:35:00
4:55 PM,69.8,48.2,46,30.22,5.0,West,9.2,-,N/A,,Haze,270,2012-10-23 20:55:00
5:15 PM,68.0,48.2,49,30.22,4.0,SW,6.9,-,N/A,,Haze,230,2012-10-23 21:15:00
5:35 PM,66.2,48.2,52,30.21,4.0,WSW,8.1,-,N/A,,Haze,240,2012-10-23 21:35:00
5:55 PM,66.2,48.2,52,30.22,5.0,West,6.9,-,N/A,,Haze,270,2012-10-23 21:55:00
6:15 PM,64.4,48.2,56,30.22,5.0,WSW,5.8,-,N/A,,Haze,250,2012-10-23 22:15:00
6:35 PM,62.6,48.2,59,30.23,5.0,SW,6.9,-,N/A,,Haze,220,2012-10-23 22:35:00
6:55 PM,62.6,48.2,59,30.23,7.0,WSW,8.1,-,N/A,,Clear,240,2012-10-23 22:55:00
7:15 PM,60.8,48.2,63,30.24,4.0,WSW,9.2,-,N/A,,Haze,240,2012-10-23 23:15:00
7:35 PM,60.8,48.2,63,30.24,7.0,WSW,9.2,-,N/A,,Clear,250,2012-10-23 23:35:00
7:55 PM,60.8,48.2,63,30.24,4.0,WSW,8.1,-,N/A,,Haze,240,2012-10-23 23:55:00
8:15 PM,60.8,48.2,63,30.24,7.0,WSW,8.1,-,N/A,,Clear,240,2012-10-24 00:15:00
8:35 PM,60.8,48.2,63,30.24,7.0,WSW,8.1,-,N/A,,Clear,250,2012-10-24 00:35:00
8:55 PM,62.6,48.2,59,30.24,7.0,West,6.9,-,N/A,,Clear,260,2012-10-24 00:55:00
9:15 PM,57.2,48.2,72,30.25,5.0,WSW,5.8,-,N/A,,Haze,250,2012-10-24 01:15:00
9:35 PM,60.8,48.2,63,30.25,7.0,West,3.5,-,N/A,,Clear,260,2012-10-24 01:35:00
9:55 PM,57.2,48.2,72,30.25,7.0,West,3.5,-,N/A,,Clear,270,2012-10-24 01:55:00
10:15 PM,60.8,48.2,63,30.26,5.0,West,3.5,-,N/A,,Haze,270,2012-10-24 02:15:00
10:35 PM,59.0,48.2,67,30.26,5.0,West,3.5,-,N/A,,Haze,280,2012-10-24 02:35:00
10:55 PM,60.8,48.2,63,30.25,7.0,West,4.6,-,N/A,,Clear,260,2012-10-24 02:55:00
11:15 PM,57.2,48.2,72,30.25,5.0,West,3.5,-,N/A,,Haze,260,2012-10-24 03:15:00
11:35 PM,60.8,48.2,63,30.25,7.0,West,3.5,-,N/A,,Clear,260,2012-10-24 03:35:00
11:55 PM,57.2,48.2,72,30.25,7.0,WSW,4.6,-,N/A,,Clear,250,2012-10-24 03:55:00